This is the latest recevied weather packets stored in our database for station/object K6GMW. If no packets are shown the sender has not sent any weather packets the latest 10 day(s).
| Time | Temp. | Humidity | Pressure | Rain* | Wind** | Luminosity | Snow |
|---|---|---|---|---|---|---|---|
| 1788238751 | 27.78° C | 64% | 1016.8 hPa | 0 mm | - | 0 W/m² | - |
| 1788238446 | 27.78° C | 64% | 1016.8 hPa | 0 mm | - | 0 W/m² | - |
| 1788238141 | 28.33° C | 63% | 1016.8 hPa | 0 mm | - | 0 W/m² | - |
| 1788237837 | 28.33° C | 63% | 1016.8 hPa | 0 mm | - | 0 W/m² | - |
| 1788237533 | 28.33° C | 62% | 1016.6 hPa | 0 mm | - | 0 W/m² | - |
| 1788237229 | 28.33° C | 62% | 1016.8 hPa | 0 mm | - | 0 W/m² | - |
| 1788236929 | 28.33° C | 62% | 1016.7 hPa | 0 mm | - | 0 W/m² | - |
| 1788236624 | 28.89° C | 62% | 1016.7 hPa | 0 mm | - | 0 W/m² | - |
| 1788236319 | 28.33° C | 62% | 1016.7 hPa | 0 mm | - | 0 W/m² | - |
| 1788236014 | 28.89° C | 61% | 1016.8 hPa | 0 mm | - | 0 W/m² | - |
| 1788235714 | 28.89° C | 61% | 1016.8 hPa | 0 mm | - | 0 W/m² | - |
| 1788235413 | 28.89° C | 60% | 1016.9 hPa | 0 mm | - | 0 W/m² | - |
| 1788235112 | 29.44° C | 60% | 1016.6 hPa | 0 mm | - | 0 W/m² | - |
| 1788234812 | 29.44° C | 59% | 1016.5 hPa | 0 mm | - | 0 W/m² | - |
| 1788234510 | 29.44° C | 59% | 1016.9 hPa | 0 mm | - | 0 W/m² | - |
| 1788234206 | 29.44° C | 59% | 1016.7 hPa | 0 mm | - | 0 W/m² | - |
| 1788233905 | 29.44° C | 58% | 1016.7 hPa | 0 mm | - | 0 W/m² | - |
| 1788233605 | 29.44° C | 58% | 1016.5 hPa | 0 mm | - | 0 W/m² | - |
| 1788233304 | 29.44° C | 58% | 1016.8 hPa | 0 mm | - | 0 W/m² | - |
| 1788233003 | 29.44° C | 58% | 1016.8 hPa | 0 mm | - | 0 W/m² | - |
| 1788232698 | 30° C | 58% | 1016.7 hPa | 0 mm | - | 0 W/m² | - |
| 1788232394 | 30° C | 58% | 1016.7 hPa | 0 mm | - | 0 W/m² | - |
| 1788232093 | 30° C | 57% | 1016.8 hPa | 0 mm | - | 0 W/m² | - |
| 1788231801 | 30° C | 57% | 1016.5 hPa | 0 mm | - | 0 W/m² | - |
| 1788231488 | 30° C | 57% | 1016.6 hPa | 0 mm | - | 0 W/m² | - |
* Rain latest hour (hover to see other rain measurements)
** Current wind speed in m/s (hover to see current wind gust speed)